Location: BGSU Observatory
(41.3799°N, 83.6397°W)
Time: 03:51:36
(UTC-04:00)

Amateur Radio Satellites - All Passes

Search period start: 24 April 2014 03:21
Search period end: 25 April 2014 03:21
Location: BGSU Observatory, 41.3799°N, 83.6397°W

Satellite Date Start Highest point End Downlink Frequencies (MHz)
Time Altitude Azimuth
UOSAT-12 24 Apr 03:25:38 03:29:06 21° 249° (WSW) 03:32:32 437.025 FM, 437.400 FM
KITSAT 1 24 Apr 03:26:48 03:34:54 74° 303° (WNW) 03:43:04 435.175 FM
AO-27 24 Apr 03:33:49 03:38:57 59° 101° (E) 03:44:03 436.795 MHz FM
Oscar 19 24 Apr 03:36:52 03:42:03 70° 286° (WNW) 03:47:12 437.125 CW, 437.150 USB
OPAL 24 Apr 03:37:28 03:42:30 72° 255° (WSW) 03:47:38 ?
ITAMSAT 1 24 Apr 03:43:11 03:48:22 71° 102° (ESE) 03:53:31 435.822 SSB
Oscar 16 24 Apr 03:46:08 03:51:12 54° 288° (WNW) 03:56:15 437.025 USB, Beacon 2401.1428
Gurwin Techsat 1B 24 Apr 03:54:24 03:59:01 29° 95° (E) 04:03:36 435.225 FM
JAS-1B 24 Apr 04:20:22 04:24:21 19° 93° (E) 04:28:30 435.800 - 435.900 CW/SSB
Uribyol 2 24 Apr 04:30:37 04:35:27 41° 291° (WNW) 04:40:16 436.500 FM
TMSAT-1 24 Apr 04:38:59 04:44:11 55° 100° (E) 04:49:21 436.925 FM
AO-Echo 24 Apr 04:39:23 04:43:46 38° 290° (WNW) 04:48:06 ?
AO-7 24 Apr 04:40:05 04:45:29 18° 91° (E) 04:50:50 29.400 - 29.500 MHz
Uosat F 24 Apr 05:02:05 05:06:30 31° 97° (E) 05:10:54 435.120 FM
AO-27 24 Apr 05:14:32 05:17:59 18° 298° (WNW) 05:21:26 436.795 MHz FM
RS-15 24 Apr 05:22:50 05:31:06 24° 102° (ESE) 05:39:08 29.354 - 29.394 USB, Beacon 29.352 USB
ITAMSAT 1 24 Apr 05:24:18 05:27:16 16° 300° (WNW) 05:30:13 435.822 SSB
KITSAT 1 24 Apr 05:25:46 05:31:47 22° 326° (NNW) 05:37:50 435.175 FM
Gurwin Techsat 1B 24 Apr 05:34:12 05:38:59 35° 292° (WNW) 05:43:45 435.225 FM
AO-40 24 Apr 05:36:08 10:58:27 36° 180° (S) 16:41:38 Beacon 2401.320
JAS-1B 24 Apr 06:09:53 06:15:24 55° 289° (WNW) 06:21:18 435.800 - 435.900 CW/SSB
TMSAT-1 24 Apr 06:19:54 06:23:41 20° 297° (WNW) 06:27:27 436.925 FM
STRAND 1 24 Apr 06:24:58 06:29:02 25° 65° (ENE) 06:33:06 ?
AO-7 24 Apr 06:30:52 06:39:14 89° 289° (WNW) 06:47:35 29.400 - 29.500 MHz
Uosat F 24 Apr 06:40:53 06:45:14 31° 293° (WNW) 06:49:34 435.120 FM
MaSat-1 24 Apr 06:52:08 06:55:14 89° 244° (WSW) 06:58:58 437.345 MHz
JAS-2 24 Apr 07:24:54 07:28:26 17° 93° (E) 07:32:10 435.800 - 435.900 CW/SSB, 435.910 FM
KITSAT 1 24 Apr 07:29:03 07:31:03 11° 356° (N) 07:33:03 435.175 FM
RS-15 24 Apr 07:30:42 07:42:04 86° 302° (WNW) 07:53:06 29.354 - 29.394 USB, Beacon 29.352 USB
Hamsat 24 Apr 07:43:09 07:47:30 65° 101° (E) 07:51:50 145.90 MHz
PCSat 24 Apr 07:53:47 07:57:05 16° 41° (NE) 08:00:23 145.825 MHz
STRAND 1 24 Apr 08:03:11 08:07:59 41° 261° (W) 08:12:48 ?
PANSAT 24 Apr 08:15:12 08:16:36 12° 175° (S) 08:17:59 not established
AO-7 24 Apr 08:25:07 08:30:57 22° 309° (NW) 08:36:48 29.400 - 29.500 MHz
SO-67 24 Apr 08:51:29 08:55:00 77° 101° (ESE) 08:58:29 435.3500 MHz FM
Sapphire 24 Apr 08:51:41 08:56:42 37° 52° (NE) 09:01:41 437.095 MHz 1200 baud AX-25 AFSK
JAS-2 24 Apr 09:08:23 09:13:52 68° 286° (WNW) 09:20:01 435.800 - 435.900 CW/SSB, 435.910 FM
HO-68 24 Apr 09:15:59 09:19:32 14° 88° (E) 09:23:04 435.675 MHz FM
Hamsat 24 Apr 09:21:05 09:22:56 13° 297° (WNW) 09:24:47 145.90 MHz
KITSAT 1 24 Apr 09:25:27 09:30:38 18° 28° (NNE) 09:35:48 435.175 FM
PCSat 24 Apr 09:35:52 09:41:20 86° 61° (ENE) 09:46:45 145.825 MHz
RS-15 24 Apr 09:46:38 09:56:08 31° 329° (NNW) 10:05:31 29.354 - 29.394 USB, Beacon 29.352 USB
PANSAT 24 Apr 09:55:08 09:56:01 11° 188° (S) 09:56:54 not established
Saudisat 1A 24 Apr 10:17:45 10:21:57 42° 117° (ESE) 10:26:10 436.775 MHz
Sapphire 24 Apr 10:35:15 10:40:03 33° 250° (WSW) 10:44:49 437.095 MHz 1200 baud AX-25 AFSK
HO-68 24 Apr 11:00:57 11:08:11 84° 106° (ESE) 11:15:23 435.675 MHz FM
Oscar 11 24 Apr 11:11:34 11:15:52 55° 100° (E) 11:20:09 145.825 FM, Beacon 2401.500 USB
FUNcube-1 24 Apr 11:17:54 11:21:10 21° 94° (E) 11:24:27 145.950 - 145.970 MHz USB
KITSAT 1 24 Apr 11:20:06 11:28:04 56° 53° (NE) 11:35:57 435.175 FM
PCSat 24 Apr 11:21:47 11:23:57 12° 258° (WSW) 11:26:06 145.825 MHz
Oscar 10/S400 24 Apr 11:24:24 13:03:02 50° 238° (WSW) 18:57:40 145.825 - 145.975 CW/USB, Beacon 145.810 USB
Saudisat 1A 24 Apr 11:58:03 12:01:43 24° 315° (NW) 12:05:23 436.775 MHz
RS-15 24 Apr 12:05:48 12:13:25 20° 4° (N) 12:21:02 29.354 - 29.394 USB, Beacon 29.352 USB
Oscar 11 24 Apr 12:49:13 12:51:36 15° 296° (WNW) 12:54:00 145.825 FM, Beacon 2401.500 USB
HO-68 24 Apr 12:50:07 12:55:02 20° 305° (NW) 12:59:58 435.675 MHz FM
FUNcube-1 24 Apr 12:53:44 12:57:39 35° 289° (WNW) 13:01:38 145.950 - 145.970 MHz USB
KITSAT 1 24 Apr 13:16:02 13:23:06 35° 252° (WSW) 13:30:08 435.175 FM
Oscar 19 24 Apr 13:16:09 13:20:01 22° 64° (ENE) 13:23:54 437.125 CW, 437.150 USB
AO-27 24 Apr 13:16:33 13:18:32 12° 58° (ENE) 13:20:31 436.795 MHz FM
ISS 24 Apr 13:22:11 13:24:31 18° 132° (SE) 13:26:51 145.800 FM
Oscar 16 24 Apr 13:24:52 13:29:11 28° 66° (ENE) 13:33:31 437.025 USB, Beacon 2401.1428
ITAMSAT 1 24 Apr 13:24:59 13:27:41 14° 60° (ENE) 13:30:23 435.822 SSB
SO-50 24 Apr 14:05:33 14:08:28 17° 110° (ESE) 14:11:25 436.795 FM
Uribyol 2 24 Apr 14:09:33 14:14:16 38° 69° (ENE) 14:19:00 436.500 FM
AO-Echo 24 Apr 14:13:49 14:18:20 31° 68° (ENE) 14:22:44 ?
RS-15 24 Apr 14:20:08 14:30:08 38° 38° (NE) 14:40:16 29.354 - 29.394 USB, Beacon 29.352 USB
TMSAT-1 24 Apr 14:24:15 14:26:02 12° 58° (ENE) 14:27:48 436.925 FM
AO-27 24 Apr 14:52:04 14:57:16 89° 76° (ENE) 15:02:29 436.795 MHz FM
Oscar 19 24 Apr 14:54:04 14:59:01 48° 261° (W) 15:04:02 437.125 CW, 437.150 USB
ISS 24 Apr 14:57:41 15:00:57 54° 328° (NNW) 15:04:15 145.800 FM
ITAMSAT 1 24 Apr 15:01:21 15:06:32 77° 257° (WSW) 15:11:43 435.822 SSB
Oscar 16 24 Apr 15:03:40 15:08:22 36° 263° (W) 15:13:08 437.025 USB, Beacon 2401.1428
JAS-1B 24 Apr 15:06:06 15:11:24 22° 62° (ENE) 15:16:09 435.800 - 435.900 CW/SSB
Gurwin Techsat 1B 24 Apr 15:15:28 15:20:30 47° 70° (ENE) 15:25:35 435.225 FM
AO-7 24 Apr 15:39:09 15:45:52 29° 56° (NE) 15:52:35 29.400 - 29.500 MHz
SO-50 24 Apr 15:44:15 15:48:37 51° 307° (NW) 15:53:03 436.795 FM
OPAL 24 Apr 15:47:39 15:52:13 30° 98° (E) 15:56:46 ?
Uribyol 2 24 Apr 15:49:32 15:53:49 26° 265° (W) 15:58:07 436.500 FM
AO-Echo 24 Apr 15:52:26 15:57:02 32° 264° (W) 16:01:33 ?
UOSAT-12 24 Apr 15:58:28 16:00:39 13° 108° (ESE) 16:02:52 437.025 FM, 437.400 FM
TMSAT-1 24 Apr 15:59:49 16:05:06 84° 76° (ENE) 16:10:26 436.925 FM
Uosat F 24 Apr 16:15:21 16:20:05 44° 70° (ENE) 16:24:50 435.120 FM
RS-15 24 Apr 16:32:31 16:43:23 73° 243° (WSW) 16:54:35 29.354 - 29.394 USB, Beacon 29.352 USB
ISS 24 Apr 16:35:56 16:38:14 17° 347° (NNW) 16:40:32 145.800 FM
AO-27 24 Apr 16:36:45 16:37:28 10° 272° (W) 16:38:10 436.795 MHz FM
JAS-1B 24 Apr 16:53:53 17:01:40 69° 257° (WSW) 17:08:10 435.800 - 435.900 CW/SSB
Gurwin Techsat 1B 24 Apr 16:56:38 17:00:41 22° 267° (W) 17:04:46 435.225 FM
OPAL 24 Apr 17:26:23 17:31:05 35° 294° (WNW) 17:35:46 ?
AO-7 24 Apr 17:29:46 17:38:00 69° 255° (WSW) 17:46:17 29.400 - 29.500 MHz
UOSAT-12 24 Apr 17:35:40 17:40:12 69° 305° (NW) 17:44:51 437.025 FM, 437.400 FM
TMSAT-1 24 Apr 17:43:56 17:45:40 12° 272° (W) 17:47:25 436.925 FM
Uosat F 24 Apr 17:55:15 17:59:03 22° 266° (W) 18:02:53 435.120 FM
ISS 24 Apr 18:13:52 18:15:57 15° 8° (N) 18:18:02 145.800 FM
Hamsat 24 Apr 18:36:42 18:40:43 45° 73° (ENE) 18:44:49 145.90 MHz
Saudisat 1A 24 Apr 18:44:31 18:48:37 36° 50° (NE) 18:52:39 436.775 MHz
RS-15 24 Apr 18:48:14 18:53:42 15° 263° (W) 18:59:16 29.354 - 29.394 USB, Beacon 29.352 USB
UOSAT-12 24 Apr 19:19:17 19:21:15 12° 325° (NW) 19:23:14 437.025 FM, 437.400 FM
JAS-2 24 Apr 19:21:18 19:26:39 49° 71° (ENE) 19:31:41 435.800 - 435.900 CW/SSB, 435.910 FM
SO-67 24 Apr 19:25:38 19:28:33 25° 71° (ENE) 19:31:29 435.3500 MHz FM
AO-7 24 Apr 19:29:36 19:32:12 12° 273° (W) 19:34:50 29.400 - 29.500 MHz
HO-68 24 Apr 19:46:56 19:49:49 13° 49° (NE) 19:52:41 435.675 MHz FM
ISS 24 Apr 19:50:13 19:53:23 37° 28° (NNE) 19:56:32 145.800 FM
STRAND 1 24 Apr 20:13:19 20:18:25 67° 102° (ESE) 20:23:28 ?
Hamsat 24 Apr 20:14:31 20:16:58 15° 269° (W) 20:19:26 145.90 MHz
Saudisat 1A 24 Apr 20:24:27 20:28:03 25° 247° (WSW) 20:31:37 436.775 MHz
MaSat-1 24 Apr 20:55:31 20:58:09 36° 113° (ESE) 21:00:33 437.345 MHz
SO-67 24 Apr 20:59:15 21:01:42 18° 266° (W) 21:04:09 435.3500 MHz FM
JAS-2 24 Apr 21:08:00 21:12:01 20° 266° (W) 21:15:52 435.800 - 435.900 CW/SSB, 435.910 FM
ISS 24 Apr 21:27:05 21:30:01 28° 225° (SW) 21:32:56 145.800 FM
HO-68 24 Apr 21:29:07 21:36:08 64° 69° (ENE) 21:43:12 435.675 MHz FM
STRAND 1 24 Apr 21:54:00 21:57:03 16° 299° (WNW) 22:00:05 ?
Oscar 11 24 Apr 22:06:44 22:10:48 43° 72° (ENE) 22:14:55 145.825 FM, Beacon 2401.500 USB
FUNcube-1 24 Apr 22:15:35 22:18:16 17° 65° (ENE) 22:20:57 145.950 - 145.970 MHz USB
SO-50 24 Apr 22:35:53 22:39:23 21° 43° (NE) 22:42:55 436.795 FM
HO-68 24 Apr 23:18:45 23:24:18 24° 267° (W) 23:29:54 435.675 MHz FM
Sapphire 24 Apr 23:33:59 23:38:41 31° 109° (ESE) 23:43:25 437.095 MHz 1200 baud AX-25 AFSK
Oscar 11 24 Apr 23:44:27 23:47:13 17° 268° (W) 23:49:59 145.825 FM, Beacon 2401.500 USB
FUNcube-1 24 Apr 23:50:26 23:54:23 41° 262° (W) 23:58:19 145.950 - 145.970 MHz USB
SO-50 25 Apr 00:15:43 00:20:18 58° 241° (WSW) 00:24:56 436.795 FM
PCSat 25 Apr 00:17:26 00:22:50 80° 117° (ESE) 00:28:16 145.825 MHz
UOSAT-12 25 Apr 00:26:09 00:29:14 17° 40° (NE) 00:32:18 437.025 FM, 437.400 FM
Sapphire 25 Apr 01:16:58 01:22:00 38° 307° (NW) 01:27:03 437.095 MHz 1200 baud AX-25 AFSK
KITSAT 1 25 Apr 01:48:50 01:56:02 37° 108° (ESE) 02:03:16 435.175 FM
PCSat 25 Apr 02:03:11 02:06:54 18° 317° (NW) 02:10:38 145.825 MHz
UOSAT-12 25 Apr 02:05:14 02:09:59 80° 239° (WSW) 02:14:40 437.025 FM, 437.400 FM
Uribyol 2 25 Apr 02:23:55 02:26:13 13° 90° (E) 02:28:31 436.500 FM
OPAL 25 Apr 03:02:29 03:07:24 54° 69° (ENE) 03:12:24 ?
Oscar 19 25 Apr 03:05:23 03:10:33 61° 101° (E) 03:15:40 437.125 CW, 437.150 USB
AO-27 25 Apr 03:05:27 03:10:04 32° 97° (E) 03:14:40 436.795 MHz FM
